Regional Weather Roundup
Issued by NWS Little Rock, AR

Home | Current Version | Previous Version | Graphics & Text | Print | Product List | Glossary On
Versions: 1 2 3 4 5 6 7 8 9 10 11 12 13 14 15 16 17 18 19 20 21 22 23 24 25 26 27 28 29 30 31 32 33 34 35 36 37 38 39 40 41 42 43 44 45 46 47 48 49 50
037
ASUS44 KLZK 201005
RWRLZK

WEATHER ROUNDUP FOR ARKANSAS
NATIONAL WEATHER SERVICE LITTLE ROCK AR
400 AM CST SAT JAN 20 2018

NOTE: "FAIR" INDICATES FEW OR NO CLOUDS BELOW 12,000 FEET WITH NO
SIGNIFICANT WEATHER AND/OR OBSTRUCTIONS TO VISIBILITY.

ARZ001-003-010-029-201100-
NORTHWEST ARKANSAS

CITY           SKY/WX    TMP DP  RH WIND       PRES   REMARKS
FAYETTEVILLE   CLOUDY    48  40  73 S8        29.99F
FORT SMITH     CLOUDY    43  33  68 NE7       30.03F
HARRISON       CLOUDY    49  40  71 S9        29.99F
BENTONVILLE    CLOUDY    48  40  73 S10       29.99F
ROGERS         CLOUDY    48  40  73 S16G22    29.98F
SILOAM SPGS    CLOUDY    49  40  71 S14       29.98F
HIGHFILL       CLOUDY    48  40  73 S16       29.97F
$$

ARZ004-005-016-201100-
NORTH CENTRAL ARKANSAS

CITY           SKY/WX    TMP DP  RH WIND       PRES   REMARKS
BATESVILLE     FAIR      39  23  52 S6        30.10F
FLIPPIN        CLOUDY    31  27  85 CALM      30.03S
MTN HOME       CLOUDY    38  31  76 S6        30.01F
$$

ARZ040-041-201100-
WEST CENTRAL ARKANSAS

CITY           SKY/WX    TMP DP  RH WIND       PRES   REMARKS
MENA           CLOUDY    52  50  93 SW6       30.05F
MOUNT IDA      CLOUDY    49  39  68 CALM      30.06F
$$

ARZ009-017-025-026-028-201100-
NORTHEAST ARKANSAS

CITY           SKY/WX    TMP DP  RH WIND       PRES   REMARKS
JONESBORO      CLOUDY    40  27  59 S14       30.13S
NEWPORT        CLOUDY    36  29  75 S10       30.13F
WALNUT RIDGE   FAIR      35  27  72 S13       30.10F WCI  26
BLYTHEVILLE    CLOUDY    39  29  67 SW13      30.14S
$$

ARZ022-023-033-042-044-201100-
CENTRAL ARKANSAS

CITY           SKY/WX    TMP DP  RH WIND       PRES   REMARKS
LITTLE ROCK    CLOUDY    42  29  59 SE5       30.13F
N LITTLE ROCK    N/A     43  26  51 CALM      30.08F
JACKSONVILLE   CLOUDY    39  31  72 E3        30.11F
SEARCY         CLOUDY    40  29  64 SW3       30.14F
HOT SPRINGS    CLOUDY    47  25  42 SE5       30.11F
RUSSELLVILLE   CLOUDY    37  30  75 CALM      30.08F
CLINTON        FAIR      30  27  86 CALM      30.09F
$$

ARZ036-201100-
EAST ARKANSAS

CITY           SKY/WX    TMP DP  RH WIND       PRES   REMARKS
WEST MEMPHIS   CLOUDY    38  30  73 S9        30.16S
$$

ARZ050-053-066-070-073-201100-
SOUTHWEST ARKANSAS

CITY           SKY/WX    TMP DP  RH WIND       PRES   REMARKS
ARKADELPHIA    CLOUDY    42  34  73 NE3       30.13S
CAMDEN         CLOUDY    45  25  45 S5        30.14S
TEXARKANA      CLOUDY    48  37  65 S9        30.09F
EL DORADO      CLOUDY    46  29  51 S6        30.13F
DE QUEEN       CLOUDY    45  34  65 E5        30.07F
$$

ARZ056-057-069-201100-
SOUTHEAST ARKANSAS

CITY           SKY/WX    TMP DP  RH WIND       PRES   REMARKS
PINE BLUFF     CLOUDY    42  28  57 S6        30.15S
STUTTGART      CLOUDY    39  31  72 SE6       30.16S
MONTICELLO     FAIR      46  24  42 S7        30.15F

$$






USA.gov is the U.S. government's official web portal to all federal, state and local government web resources and services.